{"data":{"norad_id":65869,"intl_designator":"2025-223R","name":"STARLINK-35441","alt_names":[],"object_type":"PAYLOAD","status":"ACTIVE","operator":null,"country":"US","launch_date":"2025-10-03","launch_site_code":"AFWTR","launch_vehicle":null,"mission":null,"orbit_class":"UNKNOWN","rcs_meters":null,"size_class":null,"mass_kg":null,"dimensions":null,"purposes":["comms"],"wikipedia_slug":null,"has_3d_model":false,"image_url":null,"decayed_at":null,"tle_current":{"epoch":"2026-05-25T04:00:03.998880Z","epoch_age_seconds":57781,"freshness":"FRESH","line1":"1 65869U 25223R   26145.16671295  .00008502  00000+0  26264-3 0  9990","line2":"2 65869  53.1602 298.8822 0000858  96.2099 332.9138 15.34380964  5858","mean_motion":15.34380964,"eccentricity":8.58e-5,"inclination_deg":53.1602,"raan_deg":298.8822,"arg_perigee_deg":96.2099,"mean_anomaly_deg":332.9138,"bstar":0.00026264,"rev_number":585,"period_min":93.848922385354,"perigee_km":462.17287084857,"apogee_km":463.34676874284,"semimajor_km":6840.8968197957,"source":"CELESTRAK","updated_at":"2026-05-25T13:38:20.975254Z"}}}